This is the latest recevied weather packets stored in our database for station/object W8UFO-13. If no packets are shown the sender has not sent any weather packets the latest 10 day(s).
| Time | Temp. | Humidity | Pressure | Rain* | Wind** | Luminosity | Snow |
|---|---|---|---|---|---|---|---|
| 1777813156 | 11.11° C | 69% | 1023.1 hPa | 0 mm | - | - | - |
| 1777812856 | 10.56° C | 71% | 1023.1 hPa | 0 mm | - | - | - |
| 1777812556 | 10° C | 77% | 1022.9 hPa | 0 mm | - | - | - |
| 1777812256 | 9.44° C | 78% | 1022.9 hPa | 0 mm | - | - | - |
| 1777811956 | 8.33° C | 78% | 1022.9 hPa | 0 mm | - | - | - |
| 1777811656 | 8.33° C | 80% | 1022.8 hPa | 0 mm | - | - | - |
| 1777811356 | 7.78° C | 81% | 1022.9 hPa | 0 mm | - | - | - |
| 1777811056 | 7.22° C | 82% | 1022.8 hPa | 0 mm | - | - | - |
| 1777810756 | 7.22° C | 84% | 1022.7 hPa | 0 mm | - | - | - |
| 1777810456 | 6.11° C | 85% | 1022.6 hPa | 0 mm | - | - | - |
| 1777810156 | 6.11° C | 86% | 1022.7 hPa | 0 mm | - | - | - |
| 1777809856 | 5.56° C | 87% | 1022.5 hPa | 0 mm | - | - | - |
| 1777809556 | 5.56° C | 87% | 1022.4 hPa | 0 mm | - | - | - |
| 1777809256 | 5.56° C | 87% | 1022.3 hPa | 0 mm | - | - | - |
| 1777808956 | 5.56° C | 87% | 1022.3 hPa | 0 mm | - | - | - |
| 1777808656 | 5.56° C | 88% | 1022.1 hPa | 0 mm | - | - | - |
| 1777808356 | 5° C | 88% | 1022.1 hPa | 0 mm | - | - | - |
| 1777808056 | 5° C | 88% | 1022 hPa | 0 mm | - | - | - |
| 1777807756 | 5° C | 88% | 1021.9 hPa | 0 mm | - | - | - |
| 1777807456 | 5° C | 88% | 1021.9 hPa | 0 mm | - | - | - |
| 1777807156 | 5° C | 88% | 1021.8 hPa | 0 mm | - | - | - |
| 1777806856 | 5° C | 88% | 1021.8 hPa | 0 mm | - | - | - |
| 1777806556 | 5° C | 88% | 1021.7 hPa | 0 mm | - | - | - |
| 1777806256 | 5° C | 88% | 1021.7 hPa | 0 mm | - | - | - |
| 1777805956 | 5° C | 87% | 1021.6 hPa | 0 mm | - | - | - |
* Rain latest hour (hover to see other rain measurements)
** Current wind speed in m/s (hover to see current wind gust speed)